Location: Zagreb
(45.8000°N, 16.0000°E)
Time: 17:08:54
(UTC+01:00)

Vanguard 2 Rocket - Pass Details

Date: 16 December 2025
Orbit: 553 x 3287 km, 32.9° (Epoch: 17 January)

Event Time Altitude Azimuth Distance (km) Brightness Sun altitude
Rises 03:46:11 0° 170° (S) 6,759 11.4 -38.1°
Reaches altitude 10° 03:58:09 10° 137° (SE) 6,184 11.5 -36.0°
Maximum altitude 04:00:43 10° 130° (SE) 6,185 11.6 -35.6°
Drops below altitude 10° 04:03:17 10° 122° (ESE) 6,231 11.7 -35.1°
Sets 04:15:27 0° 90° (E) 7,018 12.5 -33.0°
